Year,Month,Day,Hour,Minute,Value (Times are PST for temperature in C)
2023,03,29,00,00,6.30
2023,03,29,00,01,6.30
2023,03,29,00,02,6.30
2023,03,29,00,03,6.30
2023,03,29,00,04,6.30
2023,03,29,00,05,6.30
2023,03,29,00,06,6.30
2023,03,29,00,07,6.20
2023,03,29,00,08,6.20
2023,03,29,00,09,6.20
2023,03,29,00,10,6.20
2023,03,29,00,11,6.20
2023,03,29,00,12,6.20
2023,03,29,00,13,6.20
2023,03,29,00,14,6.20
2023,03,29,00,15,6.20
2023,03,29,00,16,6.20
2023,03,29,00,17,6.20
2023,03,29,00,18,6.20
2023,03,29,00,19,6.10
2023,03,29,00,20,6.10
2023,03,29,00,21,6.10
2023,03,29,00,22,6.10
2023,03,29,00,23,6.00
2023,03,29,00,24,6.00
2023,03,29,00,25,6.00
2023,03,29,00,26,6.00
2023,03,29,00,27,6.00
2023,03,29,00,28,6.00
2023,03,29,00,29,5.90
2023,03,29,00,30,5.90
2023,03,29,00,31,5.90
2023,03,29,00,32,5.90
2023,03,29,00,33,5.90
2023,03,29,00,34,5.90
2023,03,29,00,35,5.80
2023,03,29,00,36,5.80
2023,03,29,00,37,5.80
2023,03,29,00,38,5.80
2023,03,29,00,39,5.80
2023,03,29,00,40,5.80
2023,03,29,00,41,5.80
2023,03,29,00,42,5.80
2023,03,29,00,43,5.80
2023,03,29,00,44,5.80
2023,03,29,00,45,5.80
2023,03,29,00,46,5.70
2023,03,29,00,47,5.70
2023,03,29,00,48,5.70
2023,03,29,00,49,5.70
2023,03,29,00,50,5.70
2023,03,29,00,51,5.70
2023,03,29,00,52,5.70
2023,03,29,00,53,5.70
2023,03,29,00,54,5.60
2023,03,29,00,55,5.60
2023,03,29,00,56,5.60
2023,03,29,00,57,5.50
2023,03,29,00,58,5.50
2023,03,29,00,59,5.50
2023,03,29,01,00,5.50
2023,03,29,01,01,5.40
2023,03,29,01,02,5.40
2023,03,29,01,03,5.40
2023,03,29,01,04,5.40
2023,03,29,01,05,5.40
2023,03,29,01,06,5.40
2023,03,29,01,07,5.40
2023,03,29,01,08,5.40
2023,03,29,01,09,5.40
2023,03,29,01,10,5.40
2023,03,29,01,11,5.40
2023,03,29,01,12,5.40
2023,03,29,01,13,5.40
2023,03,29,01,14,5.40
2023,03,29,01,15,5.40
2023,03,29,01,16,5.40
2023,03,29,01,17,5.40
2023,03,29,01,18,5.30
2023,03,29,01,19,5.30
2023,03,29,01,20,5.30
2023,03,29,01,21,5.30
2023,03,29,01,22,5.30
2023,03,29,01,23,5.30
2023,03,29,01,24,5.30
2023,03,29,01,25,5.30
2023,03,29,01,26,5.30
2023,03,29,01,27,5.30
2023,03,29,01,28,5.30
2023,03,29,01,29,5.30
2023,03,29,01,30,5.20
2023,03,29,01,31,5.20
2023,03,29,01,32,5.20
2023,03,29,01,33,5.20
2023,03,29,01,34,5.20
2023,03,29,01,35,5.20
2023,03,29,01,36,5.20
2023,03,29,01,37,5.20
2023,03,29,01,38,5.10
2023,03,29,01,39,5.10
2023,03,29,01,40,5.20
2023,03,29,01,41,5.20
2023,03,29,01,42,5.20
2023,03,29,01,43,5.20
2023,03,29,01,44,5.20
2023,03,29,01,45,5.20
2023,03,29,01,46,5.20
2023,03,29,01,47,5.20
2023,03,29,01,48,5.20
2023,03,29,01,49,5.20
2023,03,29,01,50,5.20
2023,03,29,01,51,5.20
2023,03,29,01,52,5.20
2023,03,29,01,53,5.20
2023,03,29,01,54,5.20
2023,03,29,01,55,5.20
2023,03,29,01,56,5.20
2023,03,29,01,57,5.20
2023,03,29,01,58,5.20
2023,03,29,01,59,5.20
2023,03,29,02,00,5.30
2023,03,29,02,01,5.30
2023,03,29,02,02,5.30
2023,03,29,02,03,5.30
2023,03,29,02,04,5.30
2023,03,29,02,05,5.40
2023,03,29,02,06,5.60
2023,03,29,02,07,5.90
2023,03,29,02,08,6.30
2023,03,29,02,09,6.60
2023,03,29,02,10,6.90
2023,03,29,02,11,7.20
2023,03,29,02,12,7.40
2023,03,29,02,13,7.60
2023,03,29,02,14,7.80
2023,03,29,02,15,8.00
2023,03,29,02,16,8.20
2023,03,29,02,17,8.30
2023,03,29,02,18,8.50
2023,03,29,02,19,8.60
2023,03,29,02,20,8.70
2023,03,29,02,21,8.80
2023,03,29,02,22,8.90
2023,03,29,02,23,9.00
2023,03,29,02,24,9.10
2023,03,29,02,25,9.20
2023,03,29,02,26,9.30
2023,03,29,02,27,9.40
2023,03,29,02,28,9.40
2023,03,29,02,29,9.50
2023,03,29,02,30,9.60
2023,03,29,02,31,9.60
2023,03,29,02,32,9.70
2023,03,29,02,33,9.70
2023,03,29,02,34,9.70
2023,03,29,02,35,9.70
2023,03,29,02,36,9.70
2023,03,29,02,37,9.70
2023,03,29,02,38,9.70
2023,03,29,02,39,9.70
2023,03,29,02,40,9.70
2023,03,29,02,41,9.70
2023,03,29,02,42,9.70
2023,03,29,02,43,9.70
2023,03,29,02,44,9.70
2023,03,29,02,45,9.80
2023,03,29,02,46,9.80
2023,03,29,02,47,9.80
2023,03,29,02,48,9.70
2023,03,29,02,49,9.70
2023,03,29,02,50,9.70
2023,03,29,02,51,9.70
2023,03,29,02,52,9.70
2023,03,29,02,53,9.70
2023,03,29,02,54,9.70
2023,03,29,02,55,9.70
2023,03,29,02,56,9.70
2023,03,29,02,57,9.70
2023,03,29,02,58,9.70
2023,03,29,02,59,9.60
2023,03,29,03,00,9.60
2023,03,29,03,01,9.60
2023,03,29,03,02,9.60
2023,03,29,03,03,9.60
2023,03,29,03,04,9.60
2023,03,29,03,05,9.60
2023,03,29,03,06,9.60
2023,03,29,03,07,9.60
2023,03,29,03,08,9.60
2023,03,29,03,09,9.60
2023,03,29,03,10,9.60
2023,03,29,03,11,9.60
2023,03,29,03,12,9.60
2023,03,29,03,13,9.60
2023,03,29,03,14,9.50
2023,03,29,03,15,9.50
2023,03,29,03,16,9.50
2023,03,29,03,17,9.50
2023,03,29,03,18,9.40
2023,03,29,03,19,9.40
2023,03,29,03,20,9.40
2023,03,29,03,21,9.40
2023,03,29,03,22,9.50
2023,03,29,03,23,9.50
2023,03,29,03,24,9.50
2023,03,29,03,25,9.50
2023,03,29,03,26,9.60
2023,03,29,03,27,9.60
2023,03,29,03,28,9.60
2023,03,29,03,29,9.60
2023,03,29,03,30,9.70
2023,03,29,03,31,9.70
2023,03,29,03,32,9.70
2023,03,29,03,33,9.70
2023,03,29,03,34,9.70
2023,03,29,03,35,9.60
2023,03,29,03,36,9.60
2023,03,29,03,37,9.60
2023,03,29,03,38,9.60
2023,03,29,03,39,9.60
2023,03,29,03,40,9.60
2023,03,29,03,41,9.60
2023,03,29,03,42,9.60
2023,03,29,03,43,9.60
2023,03,29,03,44,9.60
2023,03,29,03,45,9.60
2023,03,29,03,46,9.60
2023,03,29,03,47,9.60
2023,03,29,03,48,9.60
2023,03,29,03,49,9.60
2023,03,29,03,50,9.60
2023,03,29,03,51,9.60
2023,03,29,03,52,9.60
2023,03,29,03,53,9.60
2023,03,29,03,54,9.60
2023,03,29,03,55,9.60
2023,03,29,03,56,9.70
2023,03,29,03,57,9.70
2023,03,29,03,58,9.70
2023,03,29,03,59,9.70
2023,03,29,04,00,9.70
2023,03,29,04,01,9.60
2023,03,29,04,02,9.60
2023,03,29,04,03,9.70
2023,03,29,04,04,9.70
2023,03,29,04,05,9.70
2023,03,29,04,06,9.70
2023,03,29,04,07,9.60
2023,03,29,04,08,9.60
2023,03,29,04,09,9.60
2023,03,29,04,10,9.60
2023,03,29,04,11,9.60
2023,03,29,04,12,9.60
2023,03,29,04,13,9.60
2023,03,29,04,14,9.60
2023,03,29,04,15,9.60
2023,03,29,04,16,9.60
2023,03,29,04,17,9.60
2023,03,29,04,18,9.50
2023,03,29,04,19,9.50
2023,03,29,04,20,9.50
2023,03,29,04,21,9.50
2023,03,29,04,22,9.50
2023,03,29,04,23,9.50
2023,03,29,04,24,9.50
2023,03,29,04,25,9.60
2023,03,29,04,26,9.60
2023,03,29,04,27,9.60
2023,03,29,04,28,9.70
2023,03,29,04,29,9.70
2023,03,29,04,30,9.70
2023,03,29,04,31,9.70
2023,03,29,04,32,9.70
2023,03,29,04,33,9.80
2023,03,29,04,34,9.80
2023,03,29,04,35,9.80
2023,03,29,04,36,9.80
2023,03,29,04,37,9.80
2023,03,29,04,38,9.80
2023,03,29,04,39,9.80
2023,03,29,04,40,9.80
2023,03,29,04,41,9.80
2023,03,29,04,42,9.80
2023,03,29,04,43,9.80
2023,03,29,04,44,9.80
2023,03,29,04,45,9.80
2023,03,29,04,46,9.70
2023,03,29,04,47,9.80
2023,03,29,04,48,9.70
2023,03,29,04,49,9.70
2023,03,29,04,50,9.70
2023,03,29,04,51,9.70
2023,03,29,04,52,9.70
2023,03,29,04,53,9.70
2023,03,29,04,54,9.70
2023,03,29,04,55,9.70
2023,03,29,04,56,9.70
2023,03,29,04,57,9.70
2023,03,29,04,58,9.70
2023,03,29,04,59,9.70
2023,03,29,05,00,9.70
2023,03,29,05,01,9.70
2023,03,29,05,02,9.80
2023,03,29,05,03,9.80
2023,03,29,05,04,9.80
2023,03,29,05,05,9.80
2023,03,29,05,06,9.90
2023,03,29,05,07,9.90
2023,03,29,05,08,9.90
2023,03,29,05,09,9.90
2023,03,29,05,10,9.90
2023,03,29,05,11,9.80
2023,03,29,05,12,9.80
2023,03,29,05,13,9.80
2023,03,29,05,14,9.80
2023,03,29,05,15,9.80
2023,03,29,05,16,9.80
2023,03,29,05,17,9.80
2023,03,29,05,18,9.90
2023,03,29,05,19,9.90
2023,03,29,05,20,9.90
2023,03,29,05,21,9.90
2023,03,29,05,22,9.90
2023,03,29,05,23,9.90
2023,03,29,05,24,9.90
2023,03,29,05,25,9.90
2023,03,29,05,26,9.90
2023,03,29,05,27,9.90
2023,03,29,05,28,9.90
2023,03,29,05,29,9.90
2023,03,29,05,30,9.90
2023,03,29,05,31,9.90
2023,03,29,05,32,9.90
2023,03,29,05,33,9.90
2023,03,29,05,34,9.90
2023,03,29,05,35,9.90
2023,03,29,05,36,10.10
2023,03,29,05,37,10.10
2023,03,29,05,38,10.10
2023,03,29,05,39,10.10
2023,03,29,05,40,10.00
2023,03,29,05,41,9.90
2023,03,29,05,42,9.90
2023,03,29,05,43,9.90
2023,03,29,05,44,9.90
2023,03,29,05,45,9.90
2023,03,29,05,46,9.90
2023,03,29,05,47,9.90
2023,03,29,05,48,9.90
2023,03,29,05,49,9.90
2023,03,29,05,50,9.90
2023,03,29,05,51,9.90
2023,03,29,05,52,9.90
2023,03,29,05,53,9.90
2023,03,29,05,54,9.90
2023,03,29,05,55,9.90
2023,03,29,05,56,9.90
2023,03,29,05,57,9.90
2023,03,29,05,58,9.80
2023,03,29,05,59,9.80
2023,03,29,06,00,9.70
2023,03,29,06,01,9.70
2023,03,29,06,02,9.60
2023,03,29,06,03,9.50
2023,03,29,06,04,9.50
2023,03,29,06,05,9.40
2023,03,29,06,06,9.30
2023,03,29,06,07,9.30
2023,03,29,06,08,9.30
2023,03,29,06,09,9.20
2023,03,29,06,10,9.20
2023,03,29,06,11,9.10
2023,03,29,06,12,9.00
2023,03,29,06,13,9.00
2023,03,29,06,14,8.90
2023,03,29,06,15,8.80
2023,03,29,06,16,8.70
2023,03,29,06,17,8.70
2023,03,29,06,18,8.60
2023,03,29,06,19,8.50
2023,03,29,06,20,8.40
2023,03,29,06,21,8.30
2023,03,29,06,22,8.20
2023,03,29,06,23,8.10
2023,03,29,06,24,8.00
2023,03,29,06,25,8.00
2023,03,29,06,26,7.90
2023,03,29,06,27,7.90
2023,03,29,06,28,7.80
2023,03,29,06,29,7.80
2023,03,29,06,30,7.70
2023,03,29,06,31,7.60
2023,03,29,06,32,7.60
2023,03,29,06,33,7.50
2023,03,29,06,34,7.40
2023,03,29,06,35,7.40
2023,03,29,06,36,7.30
2023,03,29,06,37,7.30
2023,03,29,06,38,7.30
2023,03,29,06,39,7.30
2023,03,29,06,40,7.30
2023,03,29,06,41,7.30
2023,03,29,06,42,7.20
2023,03,29,06,43,7.20
2023,03,29,06,44,7.20
2023,03,29,06,45,7.20
2023,03,29,06,46,7.20
2023,03,29,06,47,7.10
2023,03,29,06,48,7.10
2023,03,29,06,49,7.10
2023,03,29,06,50,7.10
2023,03,29,06,51,7.10
2023,03,29,06,52,7.00
2023,03,29,06,53,7.00
2023,03,29,06,54,7.00
2023,03,29,06,55,6.90
2023,03,29,06,56,6.80
2023,03,29,06,57,6.80
2023,03,29,06,58,6.80
2023,03,29,06,59,6.80
2023,03,29,07,00,6.80
2023,03,29,07,01,6.70
2023,03,29,07,02,6.70
2023,03,29,07,03,6.60
2023,03,29,07,04,6.60
2023,03,29,07,05,6.60
2023,03,29,07,06,6.50
2023,03,29,07,07,6.40
2023,03,29,07,08,6.40
2023,03,29,07,09,6.30
2023,03,29,07,10,6.30
2023,03,29,07,11,6.30
2023,03,29,07,12,6.20
2023,03,29,07,13,6.20
2023,03,29,07,14,6.20
2023,03,29,07,15,6.10
2023,03,29,07,16,6.10
2023,03,29,07,17,6.00
2023,03,29,07,18,6.00
2023,03,29,07,19,6.00
2023,03,29,07,20,6.00
2023,03,29,07,21,5.90
2023,03,29,07,22,5.90
2023,03,29,07,23,5.90
2023,03,29,07,24,5.80
2023,03,29,07,25,5.80
2023,03,29,07,26,5.80
2023,03,29,07,27,5.70
2023,03,29,07,28,5.70
2023,03,29,07,29,5.70
2023,03,29,07,30,5.70
2023,03,29,07,31,5.70
2023,03,29,07,32,5.70
2023,03,29,07,33,5.70
2023,03,29,07,34,5.60
2023,03,29,07,35,5.60
2023,03,29,07,36,5.60
2023,03,29,07,37,5.60
2023,03,29,07,38,5.60
2023,03,29,07,39,5.50
2023,03,29,07,40,5.50
2023,03,29,07,41,5.50
2023,03,29,07,42,5.50
2023,03,29,07,43,5.50
2023,03,29,07,44,5.50
2023,03,29,07,45,5.50
2023,03,29,07,46,5.60
2023,03,29,07,47,5.60
2023,03,29,07,48,5.60
2023,03,29,07,49,5.70
2023,03,29,07,50,5.70
2023,03,29,07,51,5.70
2023,03,29,07,52,5.70
2023,03,29,07,53,5.80
2023,03,29,07,54,5.80
2023,03,29,07,55,5.90
2023,03,29,07,56,5.90
2023,03,29,07,57,6.00
2023,03,29,07,58,6.00
2023,03,29,07,59,6.00
2023,03,29,08,00,6.10
2023,03,29,08,01,6.10
2023,03,29,08,02,6.20
2023,03,29,08,03,6.20
2023,03,29,08,04,6.20
2023,03,29,08,05,6.20
2023,03,29,08,06,6.30
2023,03,29,08,07,6.30
2023,03,29,08,08,6.30
2023,03,29,08,09,6.40
2023,03,29,08,10,6.40
2023,03,29,08,11,6.50
2023,03,29,08,12,6.60
2023,03,29,08,13,6.60
2023,03,29,08,14,6.70
2023,03,29,08,15,6.70
2023,03,29,08,16,6.80
2023,03,29,08,17,6.80
2023,03,29,08,18,6.80
2023,03,29,08,19,6.90
2023,03,29,08,20,6.90
2023,03,29,08,21,7.00
2023,03,29,08,22,7.00
2023,03,29,08,23,7.10
2023,03,29,08,24,7.10
2023,03,29,08,25,7.10
2023,03,29,08,26,7.20
2023,03,29,08,27,7.30
2023,03,29,08,28,7.30
2023,03,29,08,29,7.30
2023,03,29,08,30,7.40
2023,03,29,08,31,7.50
2023,03,29,08,32,7.50
2023,03,29,08,33,7.60
2023,03,29,08,34,7.60
2023,03,29,08,35,7.70
2023,03,29,08,36,7.80
2023,03,29,08,37,7.80
2023,03,29,08,38,7.90
2023,03,29,08,39,8.00
2023,03,29,08,40,8.10
2023,03,29,08,41,8.20
2023,03,29,08,42,8.40
2023,03,29,08,43,8.50
2023,03,29,08,44,8.60
2023,03,29,08,45,8.70
2023,03,29,08,46,8.80
2023,03,29,08,47,8.90
2023,03,29,08,48,9.00
2023,03,29,08,49,9.10
2023,03,29,08,50,9.20
2023,03,29,08,51,9.30
2023,03,29,08,52,9.40
2023,03,29,08,53,9.50
2023,03,29,08,54,9.60
2023,03,29,08,55,9.80
2023,03,29,08,56,9.90
2023,03,29,08,57,10.00
2023,03,29,08,58,10.10
2023,03,29,08,59,10.20
2023,03,29,09,00,10.30
2023,03,29,09,01,10.40
2023,03,29,09,02,10.40
2023,03,29,09,03,10.50
2023,03,29,09,04,10.60
2023,03,29,09,05,10.60
2023,03,29,09,06,10.70
2023,03,29,09,07,10.80
2023,03,29,09,08,10.90
2023,03,29,09,09,10.90
2023,03,29,09,10,11.00
2023,03,29,09,11,11.10
2023,03,29,09,12,11.10
2023,03,29,09,13,11.20
2023,03,29,09,14,11.30
2023,03,29,09,15,11.30
2023,03,29,09,16,11.40
2023,03,29,09,17,11.50
2023,03,29,09,18,11.60
2023,03,29,09,19,11.60
2023,03,29,09,20,11.60
2023,03,29,09,21,11.60
2023,03,29,09,22,11.70
2023,03,29,09,23,11.80
2023,03,29,09,24,11.80
2023,03,29,09,25,11.80
2023,03,29,09,26,11.90
2023,03,29,09,27,12.00
2023,03,29,09,28,12.00
2023,03,29,09,29,12.10
2023,03,29,09,30,12.20
2023,03,29,09,31,12.20
2023,03,29,09,32,12.30
2023,03,29,09,33,12.30
2023,03,29,09,34,12.30
2023,03,29,09,35,12.30
2023,03,29,09,36,12.30
2023,03,29,09,37,12.30
2023,03,29,09,38,12.30
2023,03,29,09,39,12.30
2023,03,29,09,40,12.30
2023,03,29,09,41,12.40
2023,03,29,09,42,12.40
2023,03,29,09,43,12.40
2023,03,29,09,44,12.50
2023,03,29,09,45,12.50
2023,03,29,09,46,12.50
2023,03,29,09,47,12.60
2023,03,29,09,48,12.60
2023,03,29,09,49,12.60
2023,03,29,09,50,12.60
2023,03,29,09,51,12.70
2023,03,29,09,52,12.80
2023,03,29,09,53,12.80
2023,03,29,09,54,12.90
2023,03,29,09,55,13.00
2023,03,29,09,56,13.00
2023,03,29,09,57,13.10
2023,03,29,09,58,13.10
2023,03,29,09,59,13.00
2023,03,29,10,00,13.00
2023,03,29,10,01,13.10
2023,03,29,10,02,13.10
2023,03,29,10,03,13.00
2023,03,29,10,04,13.10
2023,03,29,10,05,13.10
2023,03,29,10,06,13.10
2023,03,29,10,07,13.10
2023,03,29,10,08,13.10
2023,03,29,10,09,13.10
2023,03,29,10,10,13.10
2023,03,29,10,11,13.10
2023,03,29,10,12,13.10
2023,03,29,10,13,13.10
2023,03,29,10,14,13.10
2023,03,29,10,15,13.00
2023,03,29,10,16,13.00
2023,03,29,10,17,13.00
2023,03,29,10,18,13.00
2023,03,29,10,19,13.00
2023,03,29,10,20,13.00
2023,03,29,10,21,13.00
2023,03,29,10,22,13.00
2023,03,29,10,23,13.00
2023,03,29,10,24,13.10
2023,03,29,10,25,13.10
2023,03,29,10,26,13.10
2023,03,29,10,27,13.10
2023,03,29,10,28,13.20
2023,03,29,10,29,13.20
2023,03,29,10,30,13.20
2023,03,29,10,31,13.30
2023,03,29,10,32,13.40
2023,03,29,10,33,13.40
2023,03,29,10,34,13.40
2023,03,29,10,35,13.50
2023,03,29,10,36,13.50
2023,03,29,10,37,13.40
2023,03,29,10,38,13.40
2023,03,29,10,39,13.40
2023,03,29,10,40,13.50
2023,03,29,10,41,13.50
2023,03,29,10,42,13.50
2023,03,29,10,43,13.50
2023,03,29,10,44,13.50
2023,03,29,10,45,13.60
2023,03,29,10,46,13.60
2023,03,29,10,47,13.60
2023,03,29,10,48,13.60
2023,03,29,10,49,13.60
2023,03,29,10,50,13.60
2023,03,29,10,51,13.70
2023,03,29,10,52,13.70
2023,03,29,10,53,13.60
2023,03,29,10,54,13.60
2023,03,29,10,55,13.60
2023,03,29,10,56,13.70
2023,03,29,10,57,13.70
2023,03,29,10,58,13.70
2023,03,29,10,59,13.70
2023,03,29,11,00,13.70
2023,03,29,11,01,13.70
2023,03,29,11,02,13.70
2023,03,29,11,03,13.70
2023,03,29,11,04,13.70
2023,03,29,11,05,13.70
2023,03,29,11,06,13.70
2023,03,29,11,07,13.70
2023,03,29,11,08,13.70
2023,03,29,11,09,13.70
2023,03,29,11,10,13.70
2023,03,29,11,11,13.80
2023,03,29,11,12,13.90
2023,03,29,11,13,13.90
2023,03,29,11,14,14.00
2023,03,29,11,15,14.20
2023,03,29,11,16,14.20
2023,03,29,11,17,14.40
2023,03,29,11,18,14.40
2023,03,29,11,19,14.40
2023,03,29,11,20,14.40
2023,03,29,11,21,14.40
2023,03,29,11,22,14.40
2023,03,29,11,23,14.50
2023,03,29,11,24,14.60
2023,03,29,11,25,14.60
2023,03,29,11,26,14.60
2023,03,29,11,27,14.60
2023,03,29,11,28,14.60
2023,03,29,11,29,14.60
2023,03,29,11,30,14.70
2023,03,29,11,31,14.80
2023,03,29,11,32,14.90
2023,03,29,11,33,14.90
2023,03,29,11,34,14.90
2023,03,29,11,35,14.90
2023,03,29,11,36,14.90
2023,03,29,11,37,14.90
2023,03,29,11,38,14.70
2023,03,29,11,39,14.50
2023,03,29,11,40,14.30
2023,03,29,11,41,14.20
2023,03,29,11,42,14.20
2023,03,29,11,43,14.20
2023,03,29,11,44,14.20
2023,03,29,11,45,14.20
2023,03,29,11,46,14.20
2023,03,29,11,47,14.30
2023,03,29,11,48,14.30
2023,03,29,11,49,14.40
2023,03,29,11,50,14.40
2023,03,29,11,51,14.40
2023,03,29,11,52,14.50
2023,03,29,11,53,14.60
2023,03,29,11,54,14.50
2023,03,29,11,55,14.40
2023,03,29,11,56,14.40
2023,03,29,11,57,14.50
2023,03,29,11,58,14.50
2023,03,29,11,59,14.60
2023,03,29,12,00,14.60
2023,03,29,12,01,14.50
2023,03,29,12,02,14.30
2023,03,29,12,03,14.20
2023,03,29,12,04,14.30
2023,03,29,12,05,14.40
2023,03,29,12,06,14.50
2023,03,29,12,07,14.60
2023,03,29,12,08,14.70
2023,03,29,12,09,14.70
2023,03,29,12,10,14.70
2023,03,29,12,11,14.50
2023,03,29,12,12,14.50
2023,03,29,12,13,14.50
2023,03,29,12,14,14.50
2023,03,29,12,15,14.30
2023,03,29,12,16,14.30
2023,03,29,12,17,14.20
2023,03,29,12,18,14.20
2023,03,29,12,19,14.20
2023,03,29,12,20,14.10
2023,03,29,12,21,14.10
2023,03,29,12,22,14.00
2023,03,29,12,23,13.90
2023,03,29,12,24,13.90
2023,03,29,12,25,13.90
2023,03,29,12,26,13.90
2023,03,29,12,27,13.90
2023,03,29,12,28,14.00
2023,03,29,12,29,14.10
2023,03,29,12,30,14.20
2023,03,29,12,31,14.10
2023,03,29,12,32,13.90
2023,03,29,12,33,13.90
2023,03,29,12,34,14.10
2023,03,29,12,35,14.20
2023,03,29,12,36,14.20
2023,03,29,12,37,14.20
2023,03,29,12,38,14.20
2023,03,29,12,39,14.00
2023,03,29,12,40,13.90
2023,03,29,12,41,13.90
2023,03,29,12,42,13.90
2023,03,29,12,43,14.00
2023,03,29,12,44,14.10
2023,03,29,12,45,14.20
2023,03,29,12,46,14.30
2023,03,29,12,47,14.40
2023,03,29,12,48,14.20
2023,03,29,12,49,14.20
2023,03,29,12,50,14.10
2023,03,29,12,51,14.00
2023,03,29,12,52,14.00
2023,03,29,12,53,13.90
2023,03,29,12,54,13.90
2023,03,29,12,55,14.00
2023,03,29,12,56,14.00
2023,03,29,12,57,14.10
2023,03,29,12,58,14.20
2023,03,29,12,59,14.20
2023,03,29,13,00,14.10
2023,03,29,13,01,14.00
2023,03,29,13,02,14.00
2023,03,29,13,03,14.10
2023,03,29,13,04,14.00
2023,03,29,13,05,13.90
2023,03,29,13,06,14.00
2023,03,29,13,07,14.00
2023,03,29,13,08,14.10
2023,03,29,13,09,14.20
2023,03,29,13,10,14.20
2023,03,29,13,11,14.30
2023,03,29,13,12,14.30
2023,03,29,13,13,14.40
2023,03,29,13,14,14.50
2023,03,29,13,15,14.50
2023,03,29,13,16,14.40
2023,03,29,13,17,14.30
2023,03,29,13,18,14.30
2023,03,29,13,19,14.40
2023,03,29,13,20,14.40
2023,03,29,13,21,14.40
2023,03,29,13,22,14.40
2023,03,29,13,23,14.50
2023,03,29,13,24,14.50
2023,03,29,13,25,14.50
2023,03,29,13,26,14.40
2023,03,29,13,27,14.40
2023,03,29,13,28,14.30
2023,03,29,13,29,14.20
2023,03,29,13,30,14.40
2023,03,29,13,31,14.50
2023,03,29,13,32,14.50
2023,03,29,13,33,14.50
2023,03,29,13,34,14.60
2023,03,29,13,35,14.60
2023,03,29,13,36,14.60
2023,03,29,13,37,14.60
2023,03,29,13,38,14.50
2023,03,29,13,39,14.50
2023,03,29,13,40,14.50
2023,03,29,13,41,14.60
2023,03,29,13,42,14.60
2023,03,29,13,43,14.60
2023,03,29,13,44,14.60
2023,03,29,13,45,14.50
2023,03,29,13,46,14.50
2023,03,29,13,47,14.50
2023,03,29,13,48,14.50
2023,03,29,13,49,14.50
2023,03,29,13,50,14.50
2023,03,29,13,51,14.40
2023,03,29,13,52,14.30
2023,03,29,13,53,14.40
2023,03,29,13,54,14.50
2023,03,29,13,55,14.60
2023,03,29,13,56,14.80
2023,03,29,13,57,14.90
2023,03,29,13,58,14.90
2023,03,29,13,59,14.70
2023,03,29,14,00,14.70
2023,03,29,14,01,14.70
2023,03,29,14,02,14.70
2023,03,29,14,03,14.60
2023,03,29,14,04,14.60
2023,03,29,14,05,14.60
2023,03,29,14,06,14.70
2023,03,29,14,07,14.70
2023,03,29,14,08,14.60
2023,03,29,14,09,14.50
2023,03,29,14,10,14.30
2023,03,29,14,11,14.20
2023,03,29,14,12,14.20
2023,03,29,14,13,14.30
2023,03,29,14,14,14.30
2023,03,29,14,15,14.30
2023,03,29,14,16,14.30
2023,03,29,14,17,14.30
2023,03,29,14,18,14.50
2023,03,29,14,19,14.40
2023,03,29,14,20,14.40
2023,03,29,14,21,14.50
2023,03,29,14,22,14.50
2023,03,29,14,23,14.50
2023,03,29,14,24,14.60
2023,03,29,14,25,14.50
2023,03,29,14,26,14.40
2023,03,29,14,27,14.40
2023,03,29,14,28,14.50
2023,03,29,14,29,14.50
2023,03,29,14,30,14.50
2023,03,29,14,31,14.60
2023,03,29,14,32,14.60
2023,03,29,14,33,14.60
2023,03,29,14,34,14.60
2023,03,29,14,35,14.50
2023,03,29,14,36,14.50
2023,03,29,14,37,14.50
2023,03,29,14,38,14.50
2023,03,29,14,39,14.60
2023,03,29,14,40,14.80
2023,03,29,14,41,14.80
2023,03,29,14,42,14.80
2023,03,29,14,43,14.80
2023,03,29,14,44,14.80
2023,03,29,14,45,14.80
2023,03,29,14,46,14.80
2023,03,29,14,47,14.80
2023,03,29,14,48,14.80
2023,03,29,14,49,14.80
2023,03,29,14,50,14.80
2023,03,29,14,51,14.90
2023,03,29,14,52,15.00
2023,03,29,14,53,15.10
2023,03,29,14,54,15.10
2023,03,29,14,55,15.00
2023,03,29,14,56,14.90
2023,03,29,14,57,14.90
2023,03,29,14,58,14.80
2023,03,29,14,59,14.70
2023,03,29,15,00,14.70
2023,03,29,15,01,14.70
2023,03,29,15,02,14.80
2023,03,29,15,03,14.70
2023,03,29,15,04,14.70
2023,03,29,15,05,14.80
2023,03,29,15,06,14.90
2023,03,29,15,07,14.90
2023,03,29,15,08,14.90
2023,03,29,15,09,14.80
2023,03,29,15,10,14.80
2023,03,29,15,11,14.80
2023,03,29,15,12,14.80
2023,03,29,15,13,14.80
2023,03,29,15,14,14.90
2023,03,29,15,15,15.00
2023,03,29,15,16,15.00
2023,03,29,15,17,15.00
2023,03,29,15,18,15.10
2023,03,29,15,19,15.20
2023,03,29,15,20,15.20
2023,03,29,15,21,15.10
2023,03,29,15,22,15.10
2023,03,29,15,23,15.10
2023,03,29,15,24,15.10
2023,03,29,15,25,15.10
2023,03,29,15,26,15.10
2023,03,29,15,27,15.10
2023,03,29,15,28,15.20
2023,03,29,15,29,15.30
2023,03,29,15,30,15.40
2023,03,29,15,31,15.50
2023,03,29,15,32,15.60
2023,03,29,15,33,15.60
2023,03,29,15,34,15.50
2023,03,29,15,35,15.50
2023,03,29,15,36,15.50
2023,03,29,15,37,15.50
2023,03,29,15,38,15.50
2023,03,29,15,39,15.50
2023,03,29,15,40,15.60
2023,03,29,15,41,15.60
2023,03,29,15,42,15.70
2023,03,29,15,43,15.80
2023,03,29,15,44,15.80
2023,03,29,15,45,15.80
2023,03,29,15,46,15.80
2023,03,29,15,47,15.80
2023,03,29,15,48,15.80
2023,03,29,15,49,15.80
2023,03,29,15,50,15.60
2023,03,29,15,51,15.50
2023,03,29,15,52,15.50
2023,03,29,15,53,15.60
2023,03,29,15,54,15.70
2023,03,29,15,55,15.80
2023,03,29,15,56,15.80
2023,03,29,15,57,15.80
2023,03,29,15,58,15.80
2023,03,29,15,59,15.80
2023,03,29,16,00,15.80
2023,03,29,16,01,15.60
2023,03,29,16,02,15.50
2023,03,29,16,03,15.40
2023,03,29,16,04,15.40
2023,03,29,16,05,15.40
2023,03,29,16,06,15.40
2023,03,29,16,07,15.40
2023,03,29,16,08,15.50
2023,03,29,16,09,15.50
2023,03,29,16,10,15.40
2023,03,29,16,11,15.40
2023,03,29,16,12,15.30
2023,03,29,16,13,15.30
2023,03,29,16,14,15.30
2023,03,29,16,15,15.30
2023,03,29,16,16,15.30
2023,03,29,16,17,15.30
2023,03,29,16,18,15.30
2023,03,29,16,19,15.40
2023,03,29,16,20,15.50
2023,03,29,16,21,15.60
2023,03,29,16,22,15.50
2023,03,29,16,23,15.50
2023,03,29,16,24,15.50
2023,03,29,16,25,15.60
2023,03,29,16,26,15.60
2023,03,29,16,27,15.70
2023,03,29,16,28,15.80
2023,03,29,16,29,15.80
2023,03,29,16,30,15.80
2023,03,29,16,31,15.80
2023,03,29,16,32,15.80
2023,03,29,16,33,15.70
2023,03,29,16,34,15.60
2023,03,29,16,35,15.60
2023,03,29,16,36,15.50
2023,03,29,16,37,15.40
2023,03,29,16,38,15.40
2023,03,29,16,39,15.40
2023,03,29,16,40,15.40
2023,03,29,16,41,15.50
2023,03,29,16,42,15.50
2023,03,29,16,43,15.50
2023,03,29,16,44,15.50
2023,03,29,16,45,15.50
2023,03,29,16,46,15.50
2023,03,29,16,47,15.50
2023,03,29,16,48,15.60
2023,03,29,16,49,15.50
2023,03,29,16,50,15.50
2023,03,29,16,51,15.50
2023,03,29,16,52,15.50
2023,03,29,16,53,15.60
2023,03,29,16,54,15.70
2023,03,29,16,55,15.70
2023,03,29,16,56,15.80
2023,03,29,16,57,15.80
2023,03,29,16,58,15.80
2023,03,29,16,59,15.80
2023,03,29,17,00,15.80
2023,03,29,17,01,15.70
2023,03,29,17,02,15.80
2023,03,29,17,03,15.80
2023,03,29,17,04,15.80
2023,03,29,17,05,15.70
2023,03,29,17,06,15.60
2023,03,29,17,07,15.70
2023,03,29,17,08,15.70
2023,03,29,17,09,15.70
2023,03,29,17,10,15.80
2023,03,29,17,11,15.80
2023,03,29,17,12,15.70
2023,03,29,17,13,15.60
2023,03,29,17,14,15.60
2023,03,29,17,15,15.70
2023,03,29,17,16,15.70
2023,03,29,17,17,15.70
2023,03,29,17,18,15.70
2023,03,29,17,19,15.70
2023,03,29,17,20,15.60
2023,03,29,17,21,15.50
2023,03,29,17,22,15.40
2023,03,29,17,23,15.40
2023,03,29,17,24,15.50
2023,03,29,17,25,15.40
2023,03,29,17,26,15.40
2023,03,29,17,27,15.30
2023,03,29,17,28,15.30
2023,03,29,17,29,15.30
2023,03,29,17,30,15.30
2023,03,29,17,31,15.30
2023,03,29,17,32,15.30
2023,03,29,17,33,15.30
2023,03,29,17,34,15.30
2023,03,29,17,35,15.30
2023,03,29,17,36,15.40
2023,03,29,17,37,15.40
2023,03,29,17,38,15.40
2023,03,29,17,39,15.40
2023,03,29,17,40,15.50
2023,03,29,17,41,15.50
2023,03,29,17,42,15.50